This is the latest recevied weather packets stored in our database for station/object K2RMB. If no packets are shown the sender has not sent any weather packets the latest 10 day(s).
| Time | Temp. | Humidity | Pressure | Rain* | Wind** | Luminosity | Snow |
|---|---|---|---|---|---|---|---|
| 1777758373 | 10.56° C | 42% | 1011.8 hPa | 0 mm | - | 228 W/m² | - |
| 1777758070 | 10.56° C | 40% | 1011.8 hPa | 0 mm | - | 243 W/m² | - |
| 1777757768 | 10.56° C | 42% | 1011.8 hPa | 0 mm | - | 260 W/m² | - |
| 1777757465 | 10.56° C | 39% | 1011.5 hPa | 0 mm | - | 276 W/m² | - |
| 1777757164 | 10.56° C | 42% | 1011.5 hPa | 0 mm | - | 292 W/m² | - |
| 1777756861 | 10.56° C | 41% | 1011.5 hPa | 0 mm | - | 306 W/m² | - |
| 1777756556 | 10.56° C | 42% | 1011.5 hPa | 0 mm | - | 324 W/m² | - |
| 1777756254 | 10° C | 43% | 1011.5 hPa | 0 mm | - | 339 W/m² | - |
| 1777755950 | 10.56° C | 42% | 1011.5 hPa | 0 mm | - | 354 W/m² | - |
| 1777755648 | 10° C | 43% | 1011.8 hPa | 0 mm | - | 373 W/m² | - |
| 1777755344 | 10° C | 42% | 1011.5 hPa | 0 mm | - | 393 W/m² | - |
| 1777755042 | 10.56° C | 43% | 1011.5 hPa | 0 mm | - | 432 W/m² | - |
| 1777754738 | 10.56° C | 43% | 1011.5 hPa | 0 mm | - | 445 W/m² | - |
| 1777754436 | 10.56° C | 42% | 1011.5 hPa | 0 mm | - | 454 W/m² | - |
| 1777754132 | 10.56° C | 41% | 1011.5 hPa | 0 mm | - | 458 W/m² | - |
| 1777753830 | 10.56° C | 40% | 1011.5 hPa | 0 mm | - | 473 W/m² | - |
| 1777753525 | 10° C | 40% | 1011.5 hPa | 0 mm | - | 494 W/m² | - |
| 1777753224 | 11.11° C | 43% | 1011.8 hPa | 0 mm | - | 512 W/m² | - |
| 1777752920 | 11.67° C | 42% | 1011.8 hPa | 0 mm | - | 536 W/m² | - |
| 1777752616 | 11.67° C | 45% | 1011.5 hPa | 0 mm | - | 573 W/m² | - |
| 1777752312 | 11.67° C | 46% | 1011.5 hPa | 0 mm | - | 636 W/m² | - |
| 1777752011 | 11.11° C | 48% | 1011.5 hPa | 0 mm | - | 696 W/m² | - |
| 1777751708 | 11.11° C | 54% | 1011.5 hPa | 0 mm | - | 761 W/m² | - |
| 1777751403 | 11.11° C | 51% | 1011.1 hPa | 0 mm | - | 276 W/m² | - |
| 1777751100 | 10.56° C | 49% | 1011.5 hPa | 0 mm | - | 802 W/m² | - |
* Rain latest hour (hover to see other rain measurements)
** Current wind speed in m/s (hover to see current wind gust speed)